NIMBUS 4

Satellite information

Favourite Embed

Satellite Type and Status

PAYLOADIN ORBIT

Key statistics

Satellite NIMBUS 4 at a glance.

Uptime

20338

Days in orbit

Revolutions

≈ 13.4

Per day

Orbit

SSO

Sun Synchronous Orbit

Inclination

100.0

Latest

Satellite identification and parameters

Extended collection of information and parameters for NIMBUS 4.

Object identification

Identified? True

Debris? False

Object name: NIMBUS 4

International designator: 1970-025A

Object number (NORAD): 4362

Object ID (CCSDS): 4362

Country: UNITED STATES OF AMERICA (US)

Current information (Y/N): Y

RCS size: LARGE

Orbital parameters

Period: 107.084 minutes

Inclination: 99.9586 deg

SMA: 7469.799 km

Apoapsis: 1097.758 km

Periapsis: 1085.57 km

RAAN: 263.5807 deg

Eccentricy: 0.00081584

Argument of periapsis: 93.7311 deg

Mean anomaly: 303.3868 deg

Mean motion: 13.4474334 rev/day

Mean motion (dot): 0.00000006 rev/day2

B* drag term: 0.000087070072 1/REarth

Two-line elements (TLE)

Creation date: Dec. 12, 2025, 3:16 a.m.

Reference frame: TEME

Reference center: EARTH

Epoch: Dec. 11, 2025, 4 p.m. UTC

TLE line 0: 0 NIMBUS 4

TLE line 1: 1 04362U 70025A 25345.66727708 .00000006 00000-0 87070-4 0 9993

TLE line 2: 2 04362 99.9586 263.5807 0008158 93.7311 303.3868 13.44743340731645

Live tracking on map

Real-time ground track for satellite NIMBUS 4.

In-orbit conjunctions

There are no conjunctions computed for NIMBUS 4, at the moment. Check back to stay up to date, as we update our databases every day.

Go to all conjunctions

Associated space launch

Meteorological research and development satellite

NIMBUS 4 was lifted into orbit during the mission ‘Thorad SLV-2G Agena D | Nimbus 4’, on board a Thorad SLV-2G Agena D space rocket.

The launch took place on April 8, 1970, 8:17 a.m. from Space Launch Complex 2E.

For more information about the launch, click the button.

Launch to space Thorad SLV-2G Agena D | Nimbus 4
Thorad SLV-2G Agena D | Nimbus 4

Agency: N/A

Status: Launch Successful

Launch date: April 8, 1970, 8:17 a.m. UTC

Rocket: Thorad SLV-2G Agena D

Launch pad: Space Launch Complex 2E

Location: Vandenberg SFB, CA, USA

...

Latest news about this satellite

There are no fresh news available about this satellite. Check back as we update our databases every day.


Newsletter sign-up

Weekly statistics, charts and insights to help you stay on top of the space industry.